Regional Weather Roundup
Issued by NWS

Home | Current Version | Previous Version | Graphics & Text | Print | Product List | Glossary On
Versions: 1 2 3 4 5 6 7 8 9 10 11 12 13 14 15 16 17 18 19 20 21 22 23 24 25 26 27 28 29 30 31 32 33 34 35 36 37 38 39 40 41 42 43 44 45 46 47 48 49 50
000
ASUS45 KBOU 100710
RWRCO

WEATHER ROUNDUP FOR COLORADO
NATIONAL WEATHER SERVICE DENVER/BOULDER CO
1200 AM MST SUN DEC 10 2017

NOTE: "FAIR" INDICATES FEW OR NO CLOUDS BELOW 12000 FEET WITH NO
SIGNIFICANT WEATHER AND/OR OBSTRUCTIONS TO VISIBILITY.

COZ001>005-013-030-031-100800-
...NORTHWEST COLORADO...

CITY           SKY/WX    TMP DP  RH WIND       PRES   REMARKS
CRAIG          FAIR      10   4  76 CALM      30.58S
HAYDEN         FAIR      20  12  71 E13       30.59R WCI   7
MEEKER         FAIR      15   5  64 VRB5      30.57S WCI   8
RABBIT EARS PA FAIR      19  10  68 W12G21    30.57S WCI   7
STEAMBOAT SPGS FAIR      17  12  80 CALM      30.58S
WALDEN         FAIR       7   0  72 SE9       30.57S WCI  -7
$$

COZ006>008-011-100800-
...WEST CENTRAL VALLEYS...

CITY           SKY/WX    TMP DP  RH WIND       PRES   REMARKS
GRAND JUNCTION FAIR      22   6  50 SE5       30.56S WCI  16
MONTROSE       FAIR      19   2  47 S10       30.59S WCI   7
EAGLE          FAIR      10   6  84 S3        30.66S
RIFLE          FAIR      18   6  59 S3        30.60R
DELTA          FAIR      19   3  49 CALM      30.59S
NUCLA          FAIR      25  -6  26 SE7       30.59S WCI  17
$$

COZ017>023-064>068-100800-
...SOUTHWEST COLORADO...

CITY           SKY/WX    TMP DP  RH WIND       PRES   REMARKS
DURANGO        FAIR      16   3  56 NE7       30.51S WCI   6
CORTEZ         FAIR      13  -2  51 E8        30.52S WCI   2
PAGOSA SPRINGS FAIR      21   2  44 CALM      30.52S
TELLURIDE      FAIR      27 -13  17 SE6       30.59S WCI  20
WOLF CREEK PAS FAIR      27 -24  10 N3        30.64F
$$

COZ009-010-012-014-032>034-037-058>063-100800-
...CENTRAL COLORADO...

CITY           SKY/WX    TMP DP  RH WIND       PRES   REMARKS
ASPEN          FAIR      21   3  45 S7        30.57F WCI  12
BUENA VISTA    FAIR      29  -2  26 NW15G28   30.52S WCI  18
COPPER MTN     NOT AVBL
BERTHOUD PASS  FAIR      14   3  62 NW26      30.55F WCI  -6
COTTONWOOD PAS FAIR      36 -18   9 NW7       30.54S
GUNNISON       FAIR       7   0  73 CALM      30.61R
KREMMLING      FOG        5   1  85 CALM      30.66S VSB 1
LEADVILLE      FAIR      13  -6  42 NE6       30.57S WCI   4
MONARCH PASS   FAIR      25 -17  15 W14       30.69S WCI  13
SALIDA         FAIR      26  -2  29 W7        30.60F WCI  19
SUNLIGHT       FAIR      27 -13  17 NW5       30.64S WCI  21
WILKERSON PASS FAIR      28 -22  10 N9        30.57F WCI  20
$$

COZ069>075-100800-
...SAN LUIS VALLEY/SANGRE DE CRISTO MOUNTAINS...

CITY           SKY/WX    TMP DP  RH WIND       PRES   REMARKS
ALAMOSA        FAIR       7  -6  55 SW3       30.52S
DEL NORTE      FAIR      24 -11  21 W9        30.53S WCI  14
LA VETA PASS   FAIR      27  -6  24 SW15        N/A  WCI  15
SAGUACHE       FAIR      30  -4  22 NW16      30.52S WCI  19
$$

COZ035-036-038>040-100800-
...NORTHERN COLORADO FRONT RANGE...

CITY           SKY/WX    TMP DP  RH WIND       PRES   REMARKS
DENVER INTL AP FAIR      33   0  24 SW12      30.40S WCI  24
DMNS CITY PARK NOT AVBL
AURORA         CLEAR     32   1  25 S10       30.41F WCI  24
FRONT RANGE AP FAIR      39   0  19 SW12      30.40F
ERIE MUNI ARPT FAIR      20  10  65 S3        30.45F
BOULDER MUN AP FAIR      41   0  17 CALM      30.40S
CENTENNIAL     FAIR      31   0  26 S3        30.42S
BROOMFIELD     FAIR      37  -4  17 W9        30.41S
FORT COLLINS   FAIR      38   4  24 CALM      30.39F
LONGMONT       FAIR      31   6  34 W7        30.42S WCI  24
$$

COZ041-046-047-076>085-087-088-100800-
...PIKES PEAK/PALMER DIVIDE AND SOUTHERN FOOTHILLS...

CITY           SKY/WX    TMP DP  RH WIND       PRES   REMARKS
COLO. SPRINGS  FAIR      28   0  29 N12       30.45S WCI  18
A. F. ACADEMY  FAIR      21  -2  36 N13       30.45S WCI   8
SCHRIEVER AFB  FAIR      37  -2  18 NW6       30.44F
CHEYENNE MTN   FAIR      39  -6  14 W3        30.40F
ELLICOTT         N/A    N/A N/A N/A N3        30.42F
FALCON         FAIR      30  -5  22 NW8       30.46S WCI  23
FORT CARSON    FAIR      26  -3  28 N9        30.42F WCI  17
LIMON          FAIR      25   1  35 W7        30.41S WCI  17
MONUMENT HILL  FAIR      23   1  39 SW7       30.46S WCI  15
CANON CITY     FAIR      34   0  23 W9        30.43F WCI  26
WALSENBURG     FAIR      30   0  27 SW10      30.45S WCI  21
TRINIDAD       FAIR      26   5  40 W13       30.45R WCI  15
$$

COZ042>045-048>051-090-091-100800-
...NORTHEAST COLORADO...

CITY           SKY/WX    TMP DP  RH WIND       PRES   REMARKS
GREELEY ARPT   FAIR      23   6  48 N5        30.40S WCI  17
AKRON          FAIR      29   4  34 W15       30.36S WCI  18
BURLINGTON     FAIR      32   6  33 W10       30.35S WCI  24
WRAY           FAIR      32   7  34 W10       30.32F WCI  24
YUMA           FAIR      34   5  29 W15       30.34S WCI  24
STERLING       FAIR      37   7  28 NW8       30.34F
HOLYOKE        FAIR      37   9  30 W14       30.30F
FORT MORGAN    FAIR      28   3  35 W7        30.38S WCI  20
$$

COZ086-089-092>099-100800-
...SOUTHEAST COLORADO...

CITY           SKY/WX    TMP DP  RH WIND       PRES   REMARKS
PUEBLO         FAIR      22   2  42 W3        30.42F
LA JUNTA       FAIR      30   4  33 W12       30.41S WCI  20
LAMAR          FAIR      24   4  42 SW12      30.37F WCI  13
SPRINGFIELD      N/A     23   4  44 W6        30.39S WCI  16
$$



USA.gov is the U.S. government's official web portal to all federal, state and local government web resources and services.